Vertical_Velocity
3 2 -0 -3 -4 -5 -5 -4 -2 -0 1 4 6 5 3 1 1 0 -1 -3 -3 -0 3 4 5 6 6 4 1 -2 -3 -1 -0 -1 -2 -3 -2 0 2 3 1 -0 -0 1 2 2 2 1 2 2 1 -1 2 4 4 1 1 3 6 6 4 4 3 3 2 2 2 2 1
0 -1 -2 -4 -5 -5 -4 -3 -1 1 3 4 4 3 2 1 1 -0 -1 -2 1 3 3 1 0 0 1 2 1 -1 -1 -1 -1 -2 -2 -1 1 2 2 0 -1 -1 1 2 2 1 -0 0 2 2 1 -2 3 5 5 1 1 3 4 4 4 4 4 3 2 2 2 2 0
-2 -4 -4 -5 -4 -4 -3 -2 -0 1 2 2 2 2 3 4 5 4 3 2 1 1 -1 -3 -3 -2 -1 0 -1 -1 -2 -2 -3 -3 -0 6 6 3 -0 -3 -3 -1 2 3 2 -0 -2 -0 2 2 -0 -2 5 7 6 2 2 3 3 3 4 4 4 2 1 1 1 0 0
-3 -4 -4 -4 -3 -2 -1 0 0 0 0 -0 -1 0 3 7 7 5 3 1 1 1 1 2 3 4 5 4 -0 -3 -5 -6 -7 -4 2 11 7 2 -2 -3 -2 0 3 4 2 -1 -2 -0 2 2 -0 -1 5 9 9 4 3 2 2 2 3 3 3 1 -0 -1 -1 0 4
-3 -3 -2 -2 -2 -0 1 2 1 0 -0 -1 -1 -1 -0 -0 -1 -2 -3 -2 1 2 3 3 4 3 2 -0 -4 -7 -10 -11 -10 -4 4 11 5 1 -2 -2 -1 1 3 4 1 -1 -2 1 2 1 -1 -1 5 9 9 6 4 3 1 1 2 2 1 -0 -3 -2 0 6 8
-4 -3 -1 0 1 1 2 2 1 1 1 2 3 3 3 3 2 0 -1 -2 -2 -2 -3 -4 -5 -6 -7 -7 -8 -10 -12 -13 -7 0 5 3 -1 -2 -3 -2 -0 2 3 3 -0 -2 -1 3 2 1 -1 1 4 8 9 8 5 3 1 1 0 0 -0 -2 -3 -0 4 7 3
-3 -2 -1 1 2 2 2 1 0 0 2 3 3 3 3 3 3 3 2 1 -0 -1 -2 -2 -4 -5 -6 -8 -10 -12 -12 -8 -0 3 2 -1 -3 -2 -1 2 2 3 3 1 -2 -2 -0 4 3 1 -1 1 4 7 8 7 5 3 1 0 -0 -0 -1 -3 -2 -1 -1 -1 -1
-1 -1 0 2 2 2 2 1 0 -0 0 2 2 3 2 3 3 3 3 2 1 0 -1 -1 -2 -4 -6 -9 -11 -9 -5 2 4 4 2 1 1 2 2 3 3 3 3 -0 -3 -2 1 4 2 -0 -1 1 3 7 9 7 5 2 1 0 0 -1 -2 -2 -1 0 1 1 2
-2 -0 1 2 2 2 1 1 1 1 0 0 1 2 2 3 3 3 2 1 0 -1 -2 -1 -0 -1 -2 -5 -5 -1 4 8 7 7 7 8 8 6 3 3 5 4 2 -2 -3 -1 3 4 2 1 2 3 5 9 12 9 4 1 0 1 0 -1 -3 -2 3 6 7 7 4
-2 -0 1 2 2 2 1 1 1 1 1 1 1 2 3 3 2 2 1 0 -1 -2 -2 -1 1 3 4 5 5 5 6 7 8 8 8 9 8 5 3 5 6 4 -0 -4 -2 1 4 4 2 5 8 7 7 9 11 10 3 1 1 2 -0 -3 -4 1 7 10 9 5 1
-1 1 2 1 1 2 3 2 1 1 0 -0 0 1 2 3 2 2 1 0 0 0 1 1 3 5 7 9 8 6 4 5 3 2 2 3 3 2 3 4 4 1 -2 -4 -1 2 4 4 3 7 9 6 6 7 7 3 0 0 1 -0 -3 -2 1 5 5 5 3 0 -2
0 2 3 0 0 3 6 5 2 1 -0 -1 -1 -0 1 2 2 1 1 1 2 2 2 3 3 4 5 6 6 5 3 2 2 1 0 1 1 2 2 2 1 -1 -2 -3 0 3 4 4 3 4 6 6 7 6 3 -3 -2 -0 0 -2 -2 1 3 4 2 1 -0 -1 -1
1 2 2 -0 -0 3 8 8 3 1 -1 -2 -1 -0 -0 -1 -3 -3 -3 -1 -0 -0 -1 -1 -0 0 0 1 2 2 1 -1 1 2 2 1 1 1 0 -1 -2 -3 -3 -2 1 3 3 4 2 2 2 5 9 5 -1 -5 -1 1 1 1 2 2 2 0 0 0 -0 -0 -1
1 1 0 -0 1 3 5 6 2 0 -1 -1 0 -0 -2 -6 -11 -13 -11 -7 -4 -3 -3 -3 -3 -3 -3 -3 -3 -2 -2 -5 -1 6 9 4 1 -1 -2 -5 -5 -4 -2 0 2 3 3 2 -0 -0 1 6 10 5 -1 -3 0 2 2 2 2 1 1 1 1 1 0 -0 -2
2 1 1 1 2 2 3 3 1 -0 -0 1 2 2 -1 -7 -15 -18 -18 -13 -7 -4 -2 -2 -1 -1 -0 -2 -2 -1 -1 -4 -2 5 11 7 2 -1 -4 -7 -6 -4 -0 3 3 2 1 -1 -2 0 3 7 10 6 1 -1 -0 1 1 2 2 2 2 3 2 2 1 -0 -2
3 3 3 2 3 3 2 2 1 0 0 1 3 2 1 -2 -7 -10 -12 -13 -10 -6 -3 -2 -3 -2 -1 -1 -1 0 0 -2 -2 1 4 5 3 -1 -5 -7 -6 -2 2 3 2 0 -2 -3 -1 3 7 8 10 6 1 -2 -1 -0 2 3 5 5 4 3 3 2 1 -1 -1
3 3 3 3 3 3 3 2 2 1 0 0 1 1 1 0 3 6 7 3 -0 -1 -1 -0 -2 -3 -2 -2 -1 0 0 -1 -1 -0 1 3 2 -1 -6 -7 -4 -1 1 1 -1 -3 -5 -5 2 7 9 7 8 5 1 -2 -1 1 3 4 4 4 3 2 1 0 -0 -1 1
2 3 3 2 2 2 2 2 1 0 -0 -1 -0 -0 -0 -0 4 10 15 18 15 11 6 3 -0 -1 -1 -1 0 1 0 -0 -1 -0 1 3 2 -1 -5 -7 -3 -1 -1 -2 -4 -5 -5 -1 6 8 7 4 4 3 0 -1 -0 1 2 2 2 2 1 0 -1 -1 -1 0 3
1 1 1 1 1 1 1 1 1 -0 -1 -1 -1 -1 -0 0 1 3 7 13 15 12 7 1 -1 -2 -1 -1 0 1 1 -0 -0 0 2 3 3 -1 -5 -6 -2 0 -0 -3 -5 -4 -0 3 5 5 3 2 1 1 0 0 1 1 1 2 2 1 0 -1 -1 -1 0 3 4
-1 -1 -0 0 1 1 1 1 1 0 0 -0 -0 0 0 1 0 1 2 4 5 3 -0 -2 -2 -1 -1 0 2 2 1 -1 -0 1 2 4 3 -2 -6 -5 1 2 1 -4 -5 -1 3 2 2 2 2 1 0 1 1 2 2 2 2 2 2 1 0 -1 1 2 3 4 4
-2 -1 -1 -0 1 2 2 1 0 0 0 1 1 1 1 -0 -1 -1 0 2 2 0 -2 -3 -2 -1 2 6 6 4 2 1 3 4 5 5 0 -4 -6 -1 2 0 -4 -8 -5 2 7 3 2 1 1 1 2 2 2 2 2 1 1 1 2 1 1 1 2 3 4 3 3
-1 -1 -0 0 2 2 2 0 -1 -1 -0 1 1 1 -0 -2 -3 -1 2 5 6 5 3 1 1 2 5 8 7 4 3 4 8 8 6 2 -3 -6 -4 2 -0 -5 -9 -11 -2 6 9 4 2 1 2 2 2 2 2 1 1 1 1 1 2 1 1 1 2 2 2 2 3
1 1 1 1 2 3 2 -0 -2 -2 -2 -0 1 0 -1 -2 -1 2 6 8 8 8 8 7 5 3 2 1 -0 1 3 6 8 7 3 -2 -5 -4 -1 2 -1 -6 -9 -8 5 9 7 2 1 1 2 2 2 1 1 1 1 1 1 1 1 0 0 0 1 2 2 2 2
2 2 2 2 2 2 2 0 -2 -3 -3 -2 -1 0 0 -0 2 4 5 5 5 3 2 1 0 -0 -1 -1 0 1 2 3 2 0 -1 -2 -2 -1 0 -0 -2 -4 -3 2 10 10 6 1 1 1 1 1 1 1 0 0 1 1 2 2 1 -0 -1 -0 1 1 2 2 2
2 3 2 2 2 2 1 -0 -1 -2 -2 -1 -0 1 1 2 2 2 1 1 1 -0 -1 -3 -3 -2 -1 1 2 2 0 -1 -3 -5 -5 -4 -2 -2 -3 -3 -2 1 6 12 11 9 5 2 2 1 1 1 0 -0 -0 0 1 2 2 2 1 -1 -1 -1 0 1 1 1 1
1 2 3 3 2 1 -0 -1 -1 -1 -1 -0 0 1 1 1 0 -1 -2 -2 -1 -1 -2 -3 -4 -2 -0 3 6 6 6 4 1 -3 -6 -7 -6 -5 -5 -3 1 7 11 11 8 4 2 1 2 2 2 1 1 0 0 1 1 2 2 1 1 0 -0 -1 0 1 1 1 2
-1 0 2 4 3 1 0 1 1 0 -0 -0 -0 -0 -0 -0 -0 -1 -2 -3 -2 -1 -1 -3 -3 -2 -0 2 3 5 5 5 3 1 -2 -3 -3 -2 -1 2 4 6 6 6 3 2 1 1 1 1 1 1 1 1 1 1 1 1 2 1 1 1 1 1 1 1 3 5 5
-3 -1 1 2 2 2 2 2 1 1 1 0 -0 -0 -1 -1 -1 -2 -2 -2 -1 0 0 -1 -2 -2 -3 -3 -2 -1 0 1 1 1 1 1 2 2 2 2 2 3 3 3 2 1 1 1 1 1 1 1 1 1 2 1 1 1 1 1 2 2 2 2 2 3 4 6 5
-2 -1 -0 -0 0 1 1 1 1 1 2 2 1 0 -1 -1 -2 -1 -1 -1 -0 0 1 2 1 -1 -2 -2 -1 -1 0 1 2 2 2 1 0 0 -0 -0 0 1 2 2 1 1 1 1 1 1 2 2 1 1 1 0 0 1 1 2 2 2 2 1 2 3 4 3 1
-1 -1 -1 -1 -1 -1 -0 1 1 2 3 2 1 0 -1 -2 -3 -2 -2 -2 -1 0 2 4 3 2 0 0 -0 -1 -1 -1 -1 -1 -2 -3 -3 -3 -2 -1 -1 0 1 2 1 1 1 1 1 1 2 2 2 1 1 2 1 1 1 3 3 3 2 3 3 3 2 -0 -3
-1 -0 -0 -0 -1 -1 -0 1 2 2 2 1 0 -0 -2 -3 -3 -3 -2 -2 -1 1 3 3 2 1 1 2 1 -0 -0 0 0 -0 -1 -2 -2 -2 -1 -0 -1 0 1 2 2 1 1 2 2 3 3 4 3 2 1 1 1 1 2 3 3 3 2 2 0 -1 -2 -3 -4
0 0 0 -0 -1 -0 0 1 1 1 1 0 -1 -2 -2 -3 -2 -1 -0 -0 1 1 1 0 -1 -1 -1 0 -0 -0 -0 0 1 1 2 1 -0 -1 -1 -1 0 2 3 4 4 3 3 4 4 4 5 4 3 2 1 0 -0 0 1 1 2 1 -1 -3 -4 -4 -3 -2 -1
1 0 0 -0 0 1 1 2 2 1 1 -0 -1 -2 -2 -2 -1 0 1 2 1 0 -1 -1 -1 -1 -0 0 0 0 0 1 1 1 1 1 0 -0 -1 -0 1 3 5 5 5 5 5 5 5 5 4 3 2 1 0 -1 -1 -1 -1 -1 -1 -2 -3 -3 -3 -2 -1 -1 0
1 1 0 0 1 1 2 2 2 2 1 -1 -2 -2 -1 -0 0 1 1 2 1 1 0 0 0 1 1 2 1 1 1 1 2 2 2 2 2 1 1 0 2 4 5 5 5 5 5 5 5 4 3 2 0 0 0 -1 -1 -2 -2 -3 -2 -2 -1 -1 -0 0 1 1 1
1 0 0 1 1 1 2 2 2 2 1 -1 -1 -1 -0 -0 -0 1 2 3 2 1 0 1 1 1 1 1 1 1 1 1 2 2 2 3 3 2 2 1 3 4 5 5 4 4 5 5 6 5 3 1 0 0 0 -0 -1 -1 -1 -1 -1 -0 1 1 2 2 2 2 1
-0 -0 0 1 1 1 2 2 2 1 1 -0 -0 -0 -0 -0 0 2 3 3 1 -1 -1 0 0 -0 -0 -0 0 0 1 1 1 2 3 4 4 3 2 1 2 4 5 5 5 6 6 7 7 6 4 1 0 0 0 -1 -1 -0 1 1 1 2 2 2 2 1 1 -0 -1
-0 -0 -0 0 1 1 2 2 1 1 1 0 0 1 1 1 1 3 4 3 -0 -1 -1 -0 -0 -0 -0 0 1 1 2 2 2 2 4 5 4 2 0 -1 1 3 6 7 7 7 6 5 4 3 1 -2 -2 -2 -2 -2 -2 -1 0 0 1 1 1 1 0 -0 -0 -1 -1
-0 -0 -1 -1 0 1 1 1 1 1 1 1 1 2 2 1 1 3 4 3 -0 -1 0 0 0 1 2 2 3 3 4 5 4 4 4 4 3 0 -2 -3 1 4 7 8 7 5 3 1 1 -0 -1 -3 -4 -3 -3 -3 -2 -2 -1 -1 -1 -1 -1 -1 -1 -1 -1 -0 -0
-0 -1 -1 -1 -0 1 1 0 0 1 1 2 2 2 1 -0 1 2 4 3 2 1 1 -0 1 3 4 4 3 3 4 4 4 3 1 1 1 0 -1 -2 0 3 4 5 3 2 0 -1 -1 -1 -1 -1 -2 -2 -2 -2 -2 -2 -2 -2 -2 -2 -1 -1 -1 -1 -1 -0 0
-0 -1 -1 -1 0 0 -0 -1 0 1 2 1 1 0 0 -0 1 3 4 3 3 2 1 0 2 4 4 4 2 2 2 2 2 1 -0 -0 2 2 1 -1 -1 -0 0 0 -0 -1 -1 -1 -1 -0 -0 -0 -1 -1 -1 -1 -2 -2 -2 -1 -1 -2 -2 -1 -1 -1 -1 -0 0
-0 -0 -0 -0 0 0 -1 -1 0 1 1 -0 -0 0 1 1 2 3 3 2 2 1 1 0 1 2 2 1 0 -0 -1 -1 0 1 1 2 2 2 2 0 -1 -1 -1 -0 -0 -0 -0 0 1 1 1 0 -1 -1 -0 -0 -2 -2 -2 -1 -1 -2 -2 -1 -1 -1 -1 -1 -1
Height
1416 1415 1414 1413 1412 1410 1409 1407 1406 1404 1403 1402 1401 1400 1399 1398 1398 1397 1396 1396 1396 1396 1395 1395 1395 1395 1394 1395 1395 1394 1394 1394 1394 1395 1395 1396 1396 1396 1397 1397 1397 1398 1398 1399 1400 1400 1401 1402 1403 1404 1405 1406 1408 1409 1410 1411 1412 1413 1415 1416 1417 1418 1418 1419 1419 1420 1421 1421 1422
1416 1415 1414 1413 1411 1410 1408 1406 1405 1403 1402 1401 1400 1399 1398 1397 1397 1396 1396 1396 1396 1395 1395 1395 1394 1394 1394 1394 1394 1393 1393 1393 1393 1394 1394 1395 1395 1395 1396 1396 1396 1397 1398 1399 1399 1399 1400 1401 1403 1404 1405 1406 1407 1409 1409 1410 1411 1413 1414 1415 1416 1417 1418 1418 1419 1420 1420 1421 1422
1416 1415 1413 1412 1411 1409 1407 1406 1404 1403 1401 1400 1399 1398 1398 1397 1396 1396 1396 1396 1395 1395 1394 1394 1394 1394 1393 1393 1393 1392 1392 1392 1393 1393 1393 1394 1394 1395 1395 1395 1396 1396 1397 1398 1398 1399 1400 1401 1402 1403 1404 1405 1407 1408 1409 1410 1411 1413 1414 1415 1416 1417 1417 1418 1419 1419 1420 1421 1422
1416 1414 1413 1411 1410 1408 1407 1406 1404 1402 1401 1400 1399 1398 1398 1397 1397 1396 1395 1395 1394 1394 1394 1394 1393 1393 1393 1392 1391 1391 1391 1391 1392 1392 1393 1393 1393 1394 1394 1395 1395 1396 1396 1397 1398 1398 1399 1401 1402 1403 1404 1405 1406 1408 1409 1410 1411 1412 1413 1414 1415 1416 1417 1418 1418 1419 1420 1421 1422
1415 1414 1412 1411 1410 1408 1406 1405 1404 1402 1401 1399 1399 1398 1397 1396 1396 1395 1395 1394 1394 1394 1393 1393 1393 1392 1392 1391 1391 1390 1390 1391 1391 1391 1391 1392 1393 1393 1394 1394 1395 1395 1396 1397 1397 1398 1399 1401 1402 1402 1404 1405 1406 1407 1409 1410 1411 1412 1413 1414 1415 1416 1416 1417 1418 1419 1420 1421 1422
1415 1413 1412 1411 1409 1408 1406 1405 1404 1402 1401 1399 1398 1398 1397 1396 1395 1395 1394 1393 1393 1393 1392 1392 1391 1391 1390 1390 1390 1390 1390 1391 1391 1391 1391 1391 1392 1393 1393 1394 1394 1395 1396 1396 1396 1398 1399 1400 1401 1402 1403 1405 1406 1407 1409 1410 1411 1412 1413 1414 1415 1416 1416 1417 1418 1419 1420 1421 1421
1415 1413 1411 1410 1409 1407 1406 1405 1404 1402 1401 1400 1398 1397 1397 1396 1395 1394 1393 1393 1392 1391 1391 1391 1390 1390 1389 1389 1389 1389 1390 1390 1390 1390 1391 1391 1392 1392 1393 1393 1394 1395 1396 1396 1396 1397 1399 1400 1401 1402 1403 1405 1406 1408 1409 1410 1411 1412 1413 1414 1415 1416 1416 1417 1418 1419 1419 1420 1421
1415 1413 1411 1410 1408 1407 1406 1405 1403 1402 1401 1400 1399 1398 1396 1396 1395 1394 1393 1392 1391 1391 1391 1390 1390 1389 1389 1389 1389 1389 1389 1389 1390 1390 1391 1391 1391 1392 1392 1393 1394 1395 1395 1396 1396 1397 1399 1400 1401 1402 1404 1405 1406 1408 1409 1410 1411 1412 1413 1414 1415 1416 1416 1417 1418 1418 1419 1420 1421
1414 1413 1411 1410 1408 1407 1406 1405 1403 1402 1401 1400 1399 1397 1396 1396 1395 1394 1393 1392 1391 1391 1390 1390 1389 1389 1389 1389 1389 1389 1389 1389 1389 1390 1390 1391 1391 1392 1392 1393 1394 1395 1395 1395 1396 1398 1399 1400 1401 1403 1404 1405 1407 1408 1409 1410 1411 1412 1413 1414 1415 1416 1416 1417 1418 1418 1419 1420 1420
1414 1412 1411 1409 1408 1407 1406 1405 1403 1402 1401 1400 1399 1398 1396 1396 1395 1394 1393 1392 1391 1391 1390 1390 1389 1389 1389 1389 1389 1389 1389 1389 1389 1390 1390 1391 1391 1391 1392 1393 1394 1394 1395 1395 1396 1398 1399 1400 1401 1403 1404 1406 1407 1408 1409 1410 1411 1412 1413 1414 1415 1416 1417 1417 1417 1418 1419 1419 1420
1414 1412 1411 1409 1408 1406 1406 1404 1403 1402 1401 1400 1399 1398 1397 1396 1395 1394 1393 1392 1391 1391 1390 1390 1390 1389 1389 1389 1389 1390 1390 1390 1390 1390 1391 1391 1391 1392 1392 1393 1394 1394 1395 1396 1397 1398 1399 1400 1402 1403 1405 1406 1408 1409 1410 1411 1411 1412 1413 1414 1415 1416 1416 1417 1418 1418 1419 1419 1419
1414 1412 1411 1410 1408 1407 1406 1405 1403 1402 1401 1400 1399 1398 1397 1396 1395 1394 1393 1392 1392 1391 1391 1390 1390 1390 1390 1390 1390 1390 1391 1391 1391 1391 1391 1391 1392 1392 1393 1393 1394 1394 1395 1396 1397 1398 1399 1401 1402 1404 1405 1406 1408 1409 1410 1411 1412 1413 1413 1414 1415 1416 1416 1417 1417 1418 1418 1419 1419
1413 1412 1411 1410 1408 1407 1406 1405 1404 1402 1401 1400 1399 1398 1397 1396 1395 1394 1393 1392 1392 1391 1391 1390 1390 1390 1390 1390 1390 1390 1391 1391 1391 1391 1392 1392 1392 1393 1393 1394 1394 1395 1396 1397 1398 1399 1400 1401 1403 1404 1406 1407 1408 1409 1410 1411 1413 1413 1414 1415 1416 1416 1416 1417 1417 1417 1418 1419 1419
1413 1412 1411 1410 1408 1407 1406 1405 1404 1402 1401 1400 1399 1398 1398 1397 1396 1395 1393 1392 1392 1391 1391 1391 1391 1390 1390 1390 1391 1391 1391 1391 1391 1392 1392 1392 1393 1393 1394 1395 1395 1396 1396 1397 1398 1399 1401 1402 1404 1405 1406 1408 1409 1410 1411 1412 1413 1414 1415 1415 1416 1416 1416 1416 1417 1417 1418 1418 1419
1413 1412 1411 1410 1409 1407 1406 1405 1404 1403 1401 1401 1400 1399 1398 1397 1396 1395 1394 1393 1392 1391 1391 1391 1391 1391 1391 1391 1391 1391 1391 1391 1391 1392 1392 1393 1393 1394 1395 1396 1396 1397 1397 1398 1399 1400 1402 1403 1404 1406 1407 1408 1409 1411 1411 1413 1414 1414 1415 1415 1416 1416 1416 1416 1417 1417 1418 1418 1419
1413 1412 1411 1410 1409 1407 1406 1405 1404 1403 1402 1401 1400 1399 1398 1397 1396 1394 1393 1392 1392 1391 1391 1391 1391 1391 1391 1391 1391 1391 1391 1391 1392 1393 1393 1393 1394 1395 1396 1396 1397 1398 1398 1399 1400 1401 1403 1404 1405 1406 1408 1409 1410 1411 1412 1413 1414 1415 1415 1416 1416 1416 1416 1417 1417 1417 1418 1419 1419
1413 1412 1411 1410 1408 1407 1406 1405 1404 1403 1402 1401 1400 1399 1398 1397 1395 1394 1392 1391 1391 1391 1391 1391 1391 1391 1391 1391 1391 1391 1392 1392 1393 1393 1394 1394 1395 1396 1397 1398 1398 1399 1400 1401 1401 1403 1404 1405 1406 1407 1409 1410 1411 1411 1412 1413 1414 1415 1415 1416 1416 1416 1416 1417 1417 1418 1418 1419 1419
1414 1412 1411 1410 1408 1407 1406 1405 1404 1403 1402 1401 1400 1399 1398 1396 1395 1394 1393 1392 1391 1391 1390 1390 1390 1390 1391 1391 1391 1392 1392 1393 1393 1394 1395 1395 1396 1396 1398 1399 1400 1400 1401 1402 1403 1404 1405 1406 1407 1408 1409 1410 1411 1412 1412 1413 1414 1415 1415 1416 1416 1416 1416 1417 1417 1418 1419 1419 1420
1414 1413 1411 1410 1409 1408 1406 1405 1404 1403 1402 1401 1400 1399 1398 1397 1396 1395 1394 1392 1392 1391 1391 1390 1390 1391 1391 1391 1392 1392 1393 1393 1394 1395 1395 1396 1397 1398 1399 1400 1401 1402 1403 1404 1405 1406 1406 1407 1408 1408 1409 1411 1411 1412 1413 1414 1414 1415 1415 1416 1416 1416 1416 1417 1418 1418 1419 1420 1420
1415 1414 1412 1411 1410 1408 1407 1406 1405 1403 1402 1401 1401 1400 1399 1398 1397 1396 1394 1393 1393 1392 1392 1391 1391 1391 1392 1392 1393 1393 1394 1394 1395 1396 1396 1397 1398 1399 1401 1402 1403 1403 1404 1405 1406 1406 1407 1407 1408 1409 1410 1411 1412 1413 1414 1414 1415 1415 1416 1416 1416 1416 1417 1418 1418 1419 1420 1420 1421
1417 1415 1414 1413 1411 1410 1408 1407 1406 1404 1403 1402 1401 1401 1400 1399 1398 1397 1396 1395 1394 1393 1393 1393 1393 1393 1393 1394 1394 1395 1395 1396 1396 1397 1398 1399 1400 1401 1402 1403 1404 1404 1405 1406 1407 1407 1407 1408 1409 1411 1411 1412 1413 1414 1414 1415 1415 1416 1416 1416 1416 1417 1418 1418 1419 1420 1420 1421 1422
1418 1417 1416 1414 1412 1411 1410 1408 1407 1406 1405 1404 1403 1402 1401 1401 1399 1398 1397 1396 1395 1394 1394 1394 1395 1395 1395 1395 1396 1396 1396 1397 1397 1398 1399 1400 1401 1403 1404 1405 1405 1406 1407 1408 1409 1409 1409 1410 1411 1412 1413 1413 1414 1414 1415 1415 1415 1416 1416 1416 1416 1417 1418 1419 1420 1421 1421 1422 1422
1420 1418 1417 1416 1414 1413 1411 1410 1409 1407 1406 1405 1404 1404 1403 1402 1401 1400 1399 1398 1397 1396 1396 1396 1396 1396 1397 1397 1397 1398 1398 1399 1399 1400 1401 1401 1403 1404 1405 1406 1406 1407 1409 1410 1410 1411 1411 1412 1412 1413 1414 1414 1414 1415 1415 1415 1416 1416 1416 1416 1417 1418 1419 1420 1421 1421 1422 1422 1423
1421 1420 1419 1417 1416 1415 1413 1412 1411 1409 1408 1407 1406 1405 1405 1404 1403 1402 1401 1400 1400 1399 1398 1398 1398 1399 1399 1399 1399 1400 1400 1401 1401 1402 1403 1404 1405 1406 1406 1407 1408 1409 1410 1411 1411 1412 1412 1413 1413 1414 1414 1415 1415 1415 1415 1416 1416 1416 1416 1417 1418 1419 1420 1421 1421 1422 1423 1423 1424
1423 1422 1420 1419 1418 1417 1416 1414 1413 1411 1410 1409 1408 1407 1406 1406 1405 1405 1404 1403 1402 1401 1401 1401 1401 1401 1401 1401 1401 1401 1402 1402 1403 1404 1405 1406 1407 1408 1408 1409 1410 1411 1411 1412 1412 1413 1413 1414 1414 1415 1415 1415 1415 1415 1416 1416 1416 1417 1417 1418 1418 1419 1420 1421 1422 1423 1423 1424 1425
1425 1423 1422 1421 1419 1418 1417 1416 1415 1413 1412 1411 1410 1409 1409 1408 1407 1407 1406 1405 1405 1404 1404 1404 1404 1404 1404 1404 1404 1404 1404 1405 1406 1406 1407 1408 1409 1410 1411 1411 1412 1412 1413 1413 1413 1414 1414 1415 1415 1415 1415 1415 1415 1416 1416 1416 1417 1418 1418 1419 1419 1420 1421 1422 1423 1424 1425 1425 1426
1426 1425 1423 1422 1421 1420 1419 1418 1416 1415 1414 1414 1413 1412 1411 1411 1410 1409 1408 1408 1407 1407 1406 1406 1406 1406 1406 1406 1406 1406 1407 1407 1408 1409 1410 1410 1411 1411 1412 1413 1413 1414 1414 1414 1414 1415 1415 1415 1416 1416 1416 1416 1416 1416 1416 1417 1418 1418 1419 1420 1421 1421 1422 1423 1424 1425 1426 1427 1427
1428 1427 1425 1424 1422 1421 1420 1419 1418 1417 1416 1416 1415 1414 1413 1413 1412 1411 1411 1410 1410 1409 1409 1409 1409 1409 1409 1409 1409 1409 1409 1410 1410 1411 1411 1412 1412 1413 1413 1414 1414 1415 1415 1415 1416 1416 1416 1416 1416 1416 1416 1416 1416 1417 1417 1418 1419 1420 1420 1421 1422 1423 1424 1426 1426 1427 1428 1428 1429
1429 1428 1427 1426 1424 1423 1422 1421 1420 1419 1418 1418 1417 1416 1416 1415 1414 1413 1413 1412 1412 1411 1411 1411 1411 1411 1411 1411 1411 1411 1411 1411 1412 1412 1413 1413 1414 1414 1415 1415 1415 1416 1416 1416 1416 1416 1416 1417 1417 1417 1417 1417 1418 1418 1419 1419 1420 1421 1422 1423 1424 1426 1426 1427 1428 1429 1429 1430 1430
1431 1430 1428 1427 1426 1425 1423 1422 1422 1421 1420 1420 1419 1418 1417 1416 1416 1415 1415 1414 1414 1413 1413 1413 1413 1412 1412 1412 1412 1413 1413 1413 1414 1415 1415 1415 1416 1416 1416 1416 1416 1417 1417 1417 1417 1417 1417 1418 1418 1418 1418 1419 1419 1419 1420 1421 1422 1423 1424 1425 1426 1428 1428 1429 1430 1430 1431 1431 1432
1432 1431 1430 1428 1427 1426 1425 1425 1424 1423 1422 1421 1421 1420 1419 1418 1418 1417 1417 1416 1416 1416 1415 1415 1414 1414 1414 1414 1414 1414 1415 1415 1416 1416 1416 1416 1417 1417 1417 1417 1418 1418 1418 1419 1419 1419 1419 1419 1419 1420 1420 1420 1421 1421 1422 1423 1424 1425 1426 1427 1428 1429 1430 1431 1431 1432 1432 1433 1433
1433 1432 1431 1430 1429 1428 1427 1426 1426 1425 1424 1423 1423 1422 1421 1420 1420 1419 1419 1419 1418 1418 1418 1417 1417 1417 1417 1417 1417 1417 1417 1417 1417 1418 1418 1418 1418 1419 1419 1419 1420 1420 1420 1421 1421 1421 1421 1421 1421 1421 1422 1422 1423 1423 1424 1425 1426 1427 1428 1429 1430 1431 1432 1432 1433 1433 1433 1434 1434
1435 1434 1432 1431 1431 1430 1429 1428 1428 1427 1426 1425 1425 1424 1423 1423 1422 1422 1421 1421 1421 1421 1420 1420 1419 1419 1419 1419 1419 1419 1420 1420 1420 1420 1421 1421 1421 1421 1421 1421 1421 1422 1423 1423 1423 1423 1423 1424 1424 1424 1425 1425 1425 1426 1427 1428 1428 1429 1430 1431 1432 1432 1433 1434 1434 1434 1434 1434 1434
1437 1436 1434 1433 1432 1432 1431 1430 1430 1429 1428 1427 1427 1426 1426 1426 1425 1425 1424 1424 1423 1423 1422 1422 1422 1422 1422 1422 1422 1422 1422 1422 1422 1423 1423 1423 1423 1423 1422 1423 1424 1425 1425 1426 1426 1426 1426 1426 1427 1427 1427 1428 1428 1429 1430 1430 1431 1431 1432 1433 1433 1434 1434 1435 1435 1435 1436 1436 1436
1439 1437 1436 1435 1435 1434 1433 1432 1431 1431 1430 1429 1429 1429 1428 1428 1427 1427 1427 1426 1426 1425 1425 1425 1425 1424 1424 1424 1424 1424 1424 1424 1425 1425 1425 1425 1425 1424 1424 1425 1426 1427 1428 1428 1429 1429 1429 1430 1430 1431 1431 1431 1431 1432 1432 1433 1433 1434 1434 1435 1435 1436 1436 1436 1437 1437 1437 1437 1437
1441 1440 1439 1438 1437 1436 1435 1434 1433 1432 1431 1431 1431 1431 1431 1430 1430 1430 1430 1429 1428 1428 1427 1427 1427 1427 1427 1426 1426 1427 1427 1426 1426 1426 1426 1426 1426 1426 1426 1427 1429 1430 1431 1431 1432 1432 1433 1433 1434 1434 1434 1434 1434 1435 1435 1435 1436 1436 1436 1437 1437 1438 1438 1438 1439 1439 1439 1439 1439
1443 1442 1441 1440 1439 1438 1437 1436 1435 1435 1434 1434 1433 1433 1433 1433 1432 1432 1432 1431 1431 1430 1430 1430 1429 1429 1429 1429 1429 1429 1429 1429 1429 1429 1429 1429 1429 1429 1429 1430 1431 1432 1433 1434 1435 1435 1436 1436 1437 1437 1437 1437 1437 1437 1438 1438 1438 1439 1439 1439 1439 1440 1440 1440 1440 1440 1440 1441 1441
1446 1445 1443 1442 1441 1440 1439 1438 1437 1437 1436 1436 1436 1436 1436 1435 1435 1435 1435 1434 1433 1433 1432 1432 1432 1432 1432 1432 1432 1432 1432 1432 1432 1432 1432 1432 1433 1433 1433 1433 1434 1435 1436 1436 1437 1438 1438 1439 1439 1440 1440 1440 1440 1440 1440 1440 1440 1441 1441 1441 1441 1441 1441 1441 1441 1442 1442 1442 1442
1448 1447 1446 1445 1444 1442 1441 1441 1440 1439 1439 1439 1439 1439 1438 1438 1438 1438 1438 1437 1436 1436 1435 1435 1435 1435 1435 1435 1435 1435 1435 1436 1436 1436 1436 1436 1436 1436 1436 1436 1436 1437 1438 1439 1439 1440 1441 1441 1441 1441 1441 1441 1441 1441 1441 1441 1441 1441 1441 1441 1442 1442 1442 1443 1443 1443 1443 1444 1444
1451 1450 1449 1447 1446 1445 1444 1443 1443 1442 1442 1442 1442 1442 1442 1441 1441 1441 1441 1441 1440 1439 1439 1439 1439 1439 1439 1439 1438 1438 1438 1438 1438 1438 1438 1438 1439 1439 1439 1438 1439 1439 1440 1441 1442 1442 1442 1443 1443 1443 1443 1443 1443 1443 1443 1443 1443 1443 1443 1443 1443 1443 1444 1444 1444 1445 1445 1446 1446
1454 1452 1451 1450 1449 1448 1447 1446 1446 1446 1446 1445 1445 1445 1445 1445 1445 1445 1444 1444 1443 1443 1442 1442 1442 1442 1442 1441 1441 1441 1441 1441 1441 1441 1441 1441 1441 1441 1442 1442 1442 1442 1443 1443 1444 1444 1444 1444 1445 1445 1445 1445 1444 1444 1444 1444 1444 1444 1444 1444 1445 1445 1445 1445 1446 1446 1446 1447 1447